When you browse on this site, cookies collect data to enhance your experience and personalize the content and advertising you see.
Visit our Privacy Policy to learn more. By continuing to use the site, you agree to this use of cookies and data.
  • In Latvia
  • List of Countries
  • For 7 days
  • Water Temperature
  • Weather Map
  • Weather Widgets
  • user-avatar
    Login

    Hourly Weather Tarlauly

    Today, 25 May, Monday

    Time Temperature Precipitation Wind Pressure Humidity
    00:00 +21°C° 0 mm 3 mps 730 mmHg 46%
    01:00 +21°C° 0 mm 3 mps 730 mmHg 47%
    02:00 +20°C° 0 mm 3 mps 730 mmHg 49%
    03:00 +20°C° 0 mm 3 mps 730 mmHg 50%
    04:00 +20°C° 0 mm 4 mps 730 mmHg 50%
    05:00 +21°C° 0 mm 4 mps 730 mmHg 51%
    06:00 +23°C° 0 mm 5 mps 730 mmHg 48%
    07:00 +25°C° 0 mm 5 mps 730 mmHg 45%
    08:00 +27°C° 0 mm 6 mps 730 mmHg 43%
    09:00 +29°C° 0 mm 6 mps 730 mmHg 38%
    10:00 +30°C° 0 mm 6 mps 730 mmHg 34%
    11:00 +33°C° 0 mm 7 mps 730 mmHg 30%
    12:00 +34°C° 0 mm 7 mps 730 mmHg 28%
    13:00 +34°C° 0 mm 7 mps 730 mmHg 25%
    14:00 +35°C° 0 mm 7 mps 730 mmHg 23%
    15:00 +35°C° 0 mm 7 mps 730 mmHg 23%
    16:00 +34°C° 0 mm 8 mps 729 mmHg 24%
    17:00 +33°C° 0 mm 8 mps 729 mmHg 24%
    18:00 +32°C° 0 mm 8 mps 729 mmHg 27%
    19:00 +29°C° 0 mm 7 mps 729 mmHg 29%
    20:00 +27°C° 0 mm 7 mps 729 mmHg 32%
    21:00 +27°C° 0 mm 7 mps 729 mmHg 37%
    22:00 +26°C° 0 mm 7 mps 729 mmHg 42%
    23:00 +24°C° 0 mm 8 mps 729 mmHg 47%

    Tomorrow, 26 May, Tuesday

    Time Temperature Precipitation Wind Pressure Humidity
    00:00 +23°C° 0 mm 7 mps 728 mmHg 50%
    01:00 +23°C° 0 mm 7 mps 728 mmHg 52%
    02:00 +22°C° 0 mm 7 mps 727 mmHg 54%
    03:00 +22°C° 0 mm 7 mps 727 mmHg 54%
    04:00 +21°C° 0 mm 7 mps 727 mmHg 54%
    05:00 +21°C° 0 mm 7 mps 727 mmHg 54%
    06:00 +24°C° 0 mm 7 mps 727 mmHg 47%
    07:00 +27°C° 0 mm 7 mps 727 mmHg 40%
    08:00 +30°C° 0 mm 6 mps 727 mmHg 33%
    09:00 +33°C° 0 mm 7 mps 727 mmHg 29%
    10:00 +34°C° 0 mm 7 mps 727 mmHg 25%
    11:00 +36°C° 0 mm 7 mps 726 mmHg 21%
    12:00 +38°C° 0 mm 7 mps 726 mmHg 20%
    13:00 +38°C° 0 mm 7 mps 726 mmHg 19%
    14:00 +39°C° 0 mm 7 mps 725 mmHg 18%
    15:00 +38°C° 0 mm 7 mps 725 mmHg 20%
    16:00 +38°C° 0 mm 7 mps 725 mmHg 21%
    17:00 +37°C° 0 mm 8 mps 725 mmHg 22%
    18:00 +34°C° 0 mm 7 mps 725 mmHg 26%
    19:00 +33°C° 0 mm 6 mps 725 mmHg 29%
    20:00 +30°C° 0 mm 5 mps 725 mmHg 32%
    21:00 +29°C° 0 mm 5 mps 725 mmHg 34%
    22:00 +28°C° 0 mm 5 mps 724 mmHg 37%
    23:00 +26°C° 0 mm 4 mps 724 mmHg 39%

    Day after tomorrow, 27 May, Wednesday

    Time Temperature Precipitation Wind Pressure Humidity
    00:00 +26°C° 0 mm 5 mps 724 mmHg 41%
    01:00 +25°C° 0 mm 5 mps 724 mmHg 42%
    02:00 +24°C° 0 mm 6 mps 724 mmHg 43%
    03:00 +23°C° 0 mm 7 mps 724 mmHg 41%
    04:00 +22°C° 0 mm 8 mps 724 mmHg 39%
    05:00 +21°C° 0 mm 10 mps 725 mmHg 37%
    06:00 +22°C° 0 mm 10 mps 725 mmHg 39%
    07:00 +23°C° 0 mm 10 mps 725 mmHg 41%
    08:00 +23°C° 0 mm 10 mps 725 mmHg 43%
    09:00 +24°C° 0 mm 10 mps 725 mmHg 39%
    10:00 +24°C° 0 mm 11 mps 725 mmHg 36%
    11:00 +26°C° 0 mm 11 mps 725 mmHg 32%
    12:00 +24°C° 0 mm 11 mps 725 mmHg 32%
    13:00 +24°C° 0 mm 11 mps 725 mmHg 31%
    14:00 +24°C° 0 mm 11 mps 725 mmHg 31%
    15:00 +24°C° 0 mm 11 mps 725 mmHg 30%
    16:00 +23°C° 0 mm 11 mps 725 mmHg 30%
    17:00 +23°C° 0 mm 11 mps 725 mmHg 29%
    18:00 +21°C° 0 mm 10 mps 725 mmHg 30%
    19:00 +19°C° 0 mm 9 mps 725 mmHg 32%
    20:00 +17°C° 0 mm 8 mps 725 mmHg 33%
    21:00 +16°C° 0 mm 9 mps 725 mmHg 36%
    22:00 +14°C° 0 mm 10 mps 725 mmHg 39%
    23:00 +13°C° 0 mm 11 mps 725 mmHg 42%

    28 May, Thursday

    Time Temperature Precipitation Wind Pressure Humidity
    00:00 +12°C° 0 mm 10 mps 725 mmHg 43%
    01:00 +12°C° 0 mm 10 mps 725 mmHg 44%
    02:00 +11°C° 0 mm 9 mps 725 mmHg 45%
    03:00 +11°C° 0 mm 9 mps 725 mmHg 46%
    04:00 +11°C° 0 mm 9 mps 725 mmHg 47%
    05:00 +10°C° 0 mm 9 mps 725 mmHg 48%
    06:00 +12°C° 0 mm 10 mps 725 mmHg 42%
    07:00 +14°C° 0 mm 10 mps 725 mmHg 36%
    08:00 +17°C° 0 mm 11 mps 725 mmHg 30%
    09:00 +19°C° 0 mm 11 mps 725 mmHg 27%
    10:00 +21°C° 0 mm 11 mps 724 mmHg 23%
    11:00 +23°C° 0 mm 11 mps 724 mmHg 20%
    12:00 +24°C° 0 mm 11 mps 724 mmHg 19%
    13:00 +26°C° 0 mm 11 mps 724 mmHg 18%
    14:00 +27°C° 0 mm 10 mps 724 mmHg 17%
    15:00 +26°C° 0 mm 11 mps 724 mmHg 18%
    16:00 +26°C° 0 mm 11 mps 723 mmHg 20%
    17:00 +24°C° 0 mm 11 mps 723 mmHg 21%
    18:00 +22°C° 0 mm 10 mps 723 mmHg 25%
    19:00 +19°C° 0 mm 9 mps 723 mmHg 28%
    20:00 +17°C° 0 mm 8 mps 723 mmHg 32%
    21:00 +16°C° 0 mm 8 mps 723 mmHg 35%
    22:00 +15°C° 0 mm 8 mps 723 mmHg 37%
    23:00 +15°C° 0 mm 9 mps 723 mmHg 40%

    29 May, Friday

    Time Temperature Precipitation Wind Pressure Humidity
    00:00 +13°C° 0 mm 9 mps 723 mmHg 41%
    01:00 +12°C° 0 mm 9 mps 723 mmHg 43%
    02:00 +12°C° 0 mm 9 mps 723 mmHg 44%
    03:00 +12°C° 0 mm 9 mps 723 mmHg 44%
    04:00 +12°C° 0 mm 9 mps 722 mmHg 43%
    05:00 +12°C° 0 mm 10 mps 722 mmHg 42%
    06:00 +14°C° 0 mm 10 mps 722 mmHg 37%
    07:00 +18°C° 0 mm 10 mps 723 mmHg 31%
    08:00 +21°C° 0 mm 11 mps 723 mmHg 25%
    09:00 +23°C° 0 mm 10 mps 723 mmHg 24%
    10:00 +26°C° 0 mm 9 mps 723 mmHg 22%
    11:00 +27°C° 0 mm 9 mps 723 mmHg 20%
    12:00 +28°C° 0 mm 9 mps 722 mmHg 20%
    13:00 +29°C° 0 mm 8 mps 722 mmHg 20%
    14:00 +31°C° 0 mm 8 mps 722 mmHg 20%
    15:00 +29°C° 0 mm 8 mps 722 mmHg 21%
    16:00 +29°C° 0 mm 8 mps 722 mmHg 23%
    17:00 +29°C° 0 mm 8 mps 721 mmHg 25%
    18:00 +27°C° 0 mm 8 mps 721 mmHg 29%
    19:00 +24°C° 0 mm 7 mps 721 mmHg 33%
    20:00 +22°C° 0 mm 6 mps 721 mmHg 38%
    21:00 +21°C° 0 mm 6 mps 721 mmHg 40%
    22:00 +20°C° 0 mm 6 mps 721 mmHg 43%
    23:00 +19°C° 0 mm 6 mps 721 mmHg 45%

    30 May, Saturday

    Time Temperature Precipitation Wind Pressure Humidity
    00:00 +19°C° 0 mm 6 mps 721 mmHg 47%
    01:00 +17°C° 0 mm 5 mps 720 mmHg 49%
    02:00 +16°C° 0 mm 5 mps 720 mmHg 50%
    03:00 +16°C° 0 mm 5 mps 720 mmHg 49%
    04:00 +17°C° 0 mm 5 mps 720 mmHg 48%
    05:00 +17°C° 0 mm 5 mps 720 mmHg 47%
    06:00 +20°C° 0 mm 4 mps 720 mmHg 41%
    07:00 +24°C° 0 mm 3 mps 720 mmHg 35%
    08:00 +26°C° 0 mm 3 mps 720 mmHg 28%
    09:00 +28°C° 0 mm 2 mps 720 mmHg 26%
    10:00 +29°C° 0 mm 2 mps 720 mmHg 24%
    11:00 +31°C° 0 mm 2 mps 719 mmHg 21%
    12:00 +33°C° 0 mm 3 mps 719 mmHg 19%
    13:00 +34°C° 0 mm 4 mps 719 mmHg 18%
    14:00 +34°C° 0 mm 4 mps 718 mmHg 16%
    15:00 +34°C° 0 mm 5 mps 718 mmHg 15%
    16:00 +34°C° 0 mm 6 mps 718 mmHg 15%
    17:00 +34°C° 0 mm 6 mps 718 mmHg 14%
    18:00 +31°C° 0 mm 8 mps 718 mmHg 26%
    19:00 +27°C° 0 mm 9 mps 718 mmHg 38%
    20:00 +22°C° 0 mm 11 mps 718 mmHg 50%
    21:00 +21°C° 0.2 mm 10 mps 718 mmHg 55%
    22:00 +20°C° 0.2 mm 8 mps 719 mmHg 60%
    23:00 +17°C° 0.2 mm 7 mps 719 mmHg 65%
    Show more